Time,TemperatureF,DewpointF,PressureIn,WindDirection,WindDirectionDegrees,WindSpeedMPH,WindSpeedGustMPH,Humidity,HourlyPrecipIn,Conditions,Clouds,dailyrainin,SoftwareType,DateUTC
2013-01-11 00:00:00,48.4,45.3,29.93,SSW,202,2.0,8.0,89,0.00,,,0.04,meteohub,2013-01-11 06:00:00,
2013-01-11 00:05:00,48.4,45.3,29.93,South,182,5.0,8.0,89,0.00,,,0.04,meteohub,2013-01-11 06:05:00,
2013-01-11 00:11:00,48.4,45.3,29.93,South,187,1.0,6.0,89,0.00,,,0.00,meteohub,2013-01-11 06:11:00,
2013-01-11 00:16:00,48.4,45.3,29.92,South,178,1.0,5.0,89,0.00,,,0.00,meteohub,2013-01-11 06:16:00,
2013-01-11 00:21:00,48.2,45.3,29.92,South,169,2.0,5.0,90,0.00,,,0.00,meteohub,2013-01-11 06:21:00,
2013-01-11 00:26:00,48.4,45.5,29.92,SSE,155,5.0,5.0,90,0.00,,,0.00,meteohub,2013-01-11 06:26:00,
2013-01-11 00:32:00,48.4,45.5,29.92,SSW,192,3.0,7.0,90,0.00,,,0.00,meteohub,2013-01-11 06:32:00,
2013-01-11 00:37:00,48.6,45.5,29.92,South,174,3.0,7.0,89,0.00,,,0.00,meteohub,2013-01-11 06:37:00,
2013-01-11 00:42:00,48.6,45.5,29.92,South,185,5.0,8.0,89,0.00,,,0.00,meteohub,2013-01-11 06:42:00,
2013-01-11 00:48:00,48.6,45.5,29.92,South,181,4.0,8.0,89,0.00,,,0.00,meteohub,2013-01-11 06:48:00,
2013-01-11 00:53:00,48.6,45.5,29.92,South,174,5.0,6.0,89,0.00,,,0.00,meteohub,2013-01-11 06:53:00,
2013-01-11 00:58:00,48.6,45.5,29.92,South,173,4.0,6.0,89,0.00,,,0.00,meteohub,2013-01-11 06:58:00,
2013-01-11 01:04:00,48.4,45.3,29.91,SSE,165,3.0,7.0,89,0.00,,,0.00,meteohub,2013-01-11 07:04:00,
2013-01-11 01:09:00,48.4,45.3,29.91,South,169,3.0,7.0,89,0.00,,,0.00,meteohub,2013-01-11 07:09:00,
2013-01-11 01:14:00,48.4,45.3,29.92,SSW,196,4.0,6.0,89,0.00,,,0.00,meteohub,2013-01-11 07:14:00,
2013-01-11 01:19:00,48.2,45.3,29.91,South,175,3.0,5.0,90,0.00,,,0.00,meteohub,2013-01-11 07:19:00,
2013-01-11 01:24:00,48.0,45.1,29.92,South,186,2.0,6.0,90,0.00,,,0.00,meteohub,2013-01-11 07:24:00,
2013-01-11 01:30:00,48.0,45.1,29.92,SSE,166,4.0,6.0,90,0.00,,,0.00,meteohub,2013-01-11 07:30:00,
2013-01-11 01:35:00,48.0,45.1,29.92,South,175,4.0,6.0,90,0.00,,,0.00,meteohub,2013-01-11 07:35:00,
2013-01-11 01:40:00,48.0,45.1,29.92,SSE,165,5.0,6.0,90,0.00,,,0.00,meteohub,2013-01-11 07:40:00,
2013-01-11 01:45:00,48.0,45.1,29.92,South,176,3.0,7.0,90,0.00,,,0.00,meteohub,2013-01-11 07:45:00,
2013-01-11 01:50:00,48.0,45.1,29.92,South,172,5.0,7.0,90,0.00,,,0.00,meteohub,2013-01-11 07:50:00,
2013-01-11 01:56:00,48.0,45.1,29.92,South,181,4.0,6.0,90,0.00,,,0.00,meteohub,2013-01-11 07:56:00,
2013-01-11 02:01:00,48.0,45.1,29.92,South,171,3.0,6.0,90,0.00,,,0.00,meteohub,2013-01-11 08:01:00,
2013-01-11 02:06:00,47.8,45.0,29.92,SSE,167,4.0,6.0,90,0.00,,,0.00,meteohub,2013-01-11 08:06:00,
2013-01-11 02:11:00,47.8,45.0,29.92,SSE,161,3.0,6.0,90,0.00,,,0.00,meteohub,2013-01-11 08:11:00,
2013-01-11 02:17:00,47.8,45.0,29.92,SSE,166,1.0,6.0,90,0.00,,,0.00,meteohub,2013-01-11 08:17:00,
2013-01-11 02:22:00,47.8,45.0,29.92,SSE,158,2.0,6.0,90,0.00,,,0.00,meteohub,2013-01-11 08:22:00,
2013-01-11 02:27:00,47.7,45.0,29.92,South,178,3.0,5.0,90,0.00,,,0.00,meteohub,2013-01-11 08:27:00,
2013-01-11 02:32:00,47.7,45.0,29.92,SSE,164,2.0,5.0,90,0.00,,,0.00,meteohub,2013-01-11 08:32:00,
2013-01-11 02:37:00,47.5,44.8,29.93,SSE,162,2.0,5.0,90,0.00,,,0.00,meteohub,2013-01-11 08:37:00,
2013-01-11 02:42:00,47.5,44.8,29.92,SSE,157,1.0,5.0,90,0.00,,,0.00,meteohub,2013-01-11 08:42:00,
2013-01-11 02:47:00,47.5,45.0,29.92,SSE,166,2.0,4.0,91,0.00,,,0.00,meteohub,2013-01-11 08:47:00,
2013-01-11 02:52:00,47.3,44.8,29.92,SE,135,3.0,5.0,91,0.00,,,0.00,meteohub,2013-01-11 08:52:00,
2013-01-11 02:57:00,47.3,44.8,29.92,SSE,161,0.0,6.0,91,0.00,,,0.00,meteohub,2013-01-11 08:57:00,
2013-01-11 03:02:00,47.1,44.6,29.92,SSE,164,2.0,6.0,91,0.00,,,0.00,meteohub,2013-01-11 09:02:00,
2013-01-11 03:07:00,47.1,44.6,29.92,South,176,3.0,6.0,91,0.00,,,0.00,meteohub,2013-01-11 09:07:00,
2013-01-11 03:12:00,46.9,44.4,29.92,SSE,158,2.0,6.0,91,0.00,,,0.00,meteohub,2013-01-11 09:12:00,
2013-01-11 03:17:00,46.9,44.4,29.91,SSE,159,7.0,7.0,91,0.00,,,0.00,meteohub,2013-01-11 09:17:00,
2013-01-11 03:22:00,46.9,44.4,29.91,South,175,4.0,7.0,91,0.00,,,0.00,meteohub,2013-01-11 09:22:00,
2013-01-11 03:28:00,46.9,44.4,29.91,South,173,4.0,7.0,91,0.00,,,0.00,meteohub,2013-01-11 09:28:00,
2013-01-11 03:33:00,46.9,44.4,29.91,South,187,5.0,7.0,91,0.00,,,0.00,meteohub,2013-01-11 09:33:00,
2013-01-11 03:38:00,46.9,44.4,29.90,South,190,7.0,9.0,91,0.00,,,0.00,meteohub,2013-01-11 09:38:00,
2013-01-11 03:43:00,46.9,44.4,29.90,SSE,167,5.0,8.0,91,0.00,,,0.00,meteohub,2013-01-11 09:43:00,
2013-01-11 03:49:00,46.9,44.4,29.89,South,182,5.0,8.0,91,0.00,,,0.00,meteohub,2013-01-11 09:49:00,
2013-01-11 03:54:00,46.9,44.4,29.89,SSW,192,5.0,8.0,91,0.00,,,0.00,meteohub,2013-01-11 09:54:00,
2013-01-11 03:59:00,46.9,44.4,29.89,South,185,4.0,8.0,91,0.00,,,0.00,meteohub,2013-01-11 09:59:00,
2013-01-11 04:04:00,46.9,44.4,29.88,South,176,3.0,8.0,91,0.00,,,0.00,meteohub,2013-01-11 10:04:00,
2013-01-11 04:10:00,46.8,44.2,29.88,South,185,4.0,7.0,91,0.00,,,0.00,meteohub,2013-01-11 10:10:00,
2013-01-11 04:15:00,46.8,44.2,29.88,SSW,205,4.0,7.0,91,0.00,,,0.00,meteohub,2013-01-11 10:15:00,
2013-01-11 04:20:00,46.8,44.2,29.87,SSW,199,4.0,8.0,91,0.00,,,0.00,meteohub,2013-01-11 10:20:00,
2013-01-11 04:25:00,46.8,44.2,29.87,SSE,165,5.0,8.0,91,0.00,,,0.00,meteohub,2013-01-11 10:25:00,
2013-01-11 04:31:00,46.8,44.2,29.87,South,189,5.0,8.0,91,0.00,,,0.00,meteohub,2013-01-11 10:31:00,
2013-01-11 04:36:00,46.8,44.2,29.86,South,177,4.0,8.0,91,0.00,,,0.00,meteohub,2013-01-11 10:36:00,
2013-01-11 04:41:00,46.8,44.2,29.87,South,189,5.0,8.0,91,0.00,,,0.00,meteohub,2013-01-11 10:41:00,
2013-01-11 04:46:00,46.8,44.2,29.87,South,171,5.0,8.0,91,0.00,,,0.00,meteohub,2013-01-11 10:46:00,
2013-01-11 04:52:00,46.8,44.2,29.87,South,189,6.0,8.0,91,0.00,,,0.00,meteohub,2013-01-11 10:52:00,
2013-01-11 04:57:00,46.6,44.1,29.87,South,181,5.0,8.0,91,0.00,,,0.00,meteohub,2013-01-11 10:57:00,
2013-01-11 05:02:00,46.6,44.1,29.87,South,175,5.0,8.0,91,0.00,,,0.00,meteohub,2013-01-11 11:02:00,
2013-01-11 05:07:00,46.6,44.4,29.87,South,169,6.0,9.0,92,0.00,,,0.00,meteohub,2013-01-11 11:07:00,
2013-01-11 05:12:00,46.6,44.4,29.87,South,174,6.0,9.0,92,0.00,,,0.00,meteohub,2013-01-11 11:12:00,
2013-01-11 05:18:00,46.6,44.4,29.87,South,185,4.0,10.0,92,0.00,,,0.00,meteohub,2013-01-11 11:18:00,
2013-01-11 05:23:00,46.6,44.4,29.87,SSE,166,9.0,10.0,92,0.00,,,0.00,meteohub,2013-01-11 11:23:00,
2013-01-11 05:28:00,46.6,44.4,29.87,SSW,192,9.0,12.0,92,0.00,,,0.00,meteohub,2013-01-11 11:28:00,
2013-01-11 05:34:00,46.6,44.4,29.87,South,186,8.0,12.0,92,0.00,,,0.00,meteohub,2013-01-11 11:34:00,
2013-01-11 05:39:00,46.6,44.4,29.87,SSW,192,8.0,12.0,92,0.00,,,0.00,meteohub,2013-01-11 11:39:00,
2013-01-11 05:44:00,46.6,44.4,29.87,South,184,5.0,12.0,92,0.00,,,0.00,meteohub,2013-01-11 11:44:00,
2013-01-11 05:49:00,46.6,44.4,29.87,SSW,198,9.0,12.0,92,0.00,,,0.00,meteohub,2013-01-11 11:49:00,
2013-01-11 05:55:00,46.8,44.6,29.87,South,188,8.0,12.0,92,0.00,,,0.00,meteohub,2013-01-11 11:55:00,
2013-01-11 06:00:00,46.8,44.2,29.87,South,171,5.0,11.0,91,0.00,,,0.00,meteohub,2013-01-11 12:00:00,
2013-01-11 06:05:00,46.8,44.2,29.87,South,182,7.0,11.0,91,0.00,,,0.00,meteohub,2013-01-11 12:05:00,
2013-01-11 06:10:00,46.8,44.6,29.87,South,177,11.0,11.0,92,0.00,,,0.00,meteohub,2013-01-11 12:10:00,
2013-01-11 06:16:00,46.8,44.2,29.87,South,173,6.0,11.0,91,0.00,,,0.00,meteohub,2013-01-11 12:16:00,
2013-01-11 06:21:00,46.8,44.2,29.88,SSW,192,6.0,11.0,91,0.00,,,0.00,meteohub,2013-01-11 12:21:00,
2013-01-11 06:26:00,46.8,44.2,29.87,South,177,7.0,11.0,91,0.00,,,0.00,meteohub,2013-01-11 12:26:00,
2013-01-11 06:32:00,46.8,44.2,29.87,South,189,7.0,10.0,91,0.00,,,0.00,meteohub,2013-01-11 12:32:00,
2013-01-11 06:37:00,46.9,44.4,29.88,SW,220,5.0,10.0,91,0.00,,,0.00,meteohub,2013-01-11 12:37:00,
2013-01-11 06:42:00,46.9,44.4,29.88,South,186,5.0,10.0,91,0.00,,,0.00,meteohub,2013-01-11 12:42:00,
2013-01-11 06:47:00,46.9,44.2,29.88,SSW,202,6.0,10.0,90,0.00,,,0.00,meteohub,2013-01-11 12:47:00,
2013-01-11 06:52:00,47.1,44.4,29.88,SSW,206,6.0,10.0,90,0.00,,,0.00,meteohub,2013-01-11 12:52:00,
2013-01-11 06:57:00,47.3,44.6,29.88,South,178,3.0,10.0,90,0.00,,,0.00,meteohub,2013-01-11 12:57:00,
2013-01-11 07:02:00,47.5,44.8,29.88,South,190,6.0,10.0,90,0.00,,,0.00,meteohub,2013-01-11 13:02:00,
2013-01-11 07:07:00,47.5,44.8,29.88,South,179,6.0,10.0,90,0.00,,,0.00,meteohub,2013-01-11 13:07:00,
2013-01-11 07:12:00,47.7,44.6,29.88,SSW,194,4.0,9.0,89,0.00,,,0.00,meteohub,2013-01-11 13:12:00,
2013-01-11 07:17:00,47.7,44.6,29.88,SSW,194,5.0,9.0,89,0.00,,,0.00,meteohub,2013-01-11 13:17:00,
2013-01-11 07:22:00,47.7,44.6,29.89,South,171,5.0,9.0,89,0.00,,,0.00,meteohub,2013-01-11 13:22:00,
2013-01-11 07:27:00,47.8,44.8,29.89,SSW,213,3.0,9.0,89,0.00,,,0.00,meteohub,2013-01-11 13:27:00,
2013-01-11 07:32:00,47.7,44.2,29.88,SSW,206,5.0,9.0,88,0.00,,,0.00,meteohub,2013-01-11 13:32:00,
2013-01-11 07:38:00,47.7,44.2,29.88,SSW,198,6.0,9.0,88,0.00,,,0.00,meteohub,2013-01-11 13:38:00,
2013-01-11 07:43:00,47.7,44.6,29.88,SSE,166,5.0,9.0,89,0.00,,,0.00,meteohub,2013-01-11 13:43:00,
2013-01-11 07:48:00,47.8,44.8,29.88,South,188,3.0,9.0,89,0.00,,,0.00,meteohub,2013-01-11 13:48:00,
2013-01-11 07:54:00,47.8,44.8,29.88,SSW,200,6.0,9.0,89,0.00,,,0.00,meteohub,2013-01-11 13:54:00,
2013-01-11 07:59:00,47.8,44.4,29.88,South,186,6.0,10.0,88,0.00,,,0.00,meteohub,2013-01-11 13:59:00,
2013-01-11 08:04:00,48.0,44.6,29.88,South,185,5.0,10.0,88,0.00,,,0.00,meteohub,2013-01-11 14:04:00,
2013-01-11 08:09:00,48.0,44.6,29.88,South,180,6.0,9.0,88,0.00,,,0.00,meteohub,2013-01-11 14:09:00,
2013-01-11 08:14:00,48.0,44.6,29.88,South,170,3.0,9.0,88,0.00,,,0.00,meteohub,2013-01-11 14:14:00,
2013-01-11 08:20:00,48.2,44.8,29.88,SSW,195,7.0,9.0,88,0.00,,,0.00,meteohub,2013-01-11 14:20:00,
2013-01-11 08:25:00,48.4,45.3,29.88,South,184,4.0,11.0,89,0.00,,,0.00,meteohub,2013-01-11 14:25:00,
2013-01-11 08:30:00,48.4,45.3,29.89,South,186,5.0,11.0,89,0.00,,,0.00,meteohub,2013-01-11 14:30:00,
2013-01-11 08:35:00,48.6,45.1,29.89,South,180,4.0,11.0,88,0.00,,,0.00,meteohub,2013-01-11 14:35:00,
2013-01-11 08:41:00,48.6,45.1,29.89,South,177,7.0,11.0,88,0.00,,,0.00,meteohub,2013-01-11 14:41:00,
2013-01-11 08:46:00,48.6,45.1,29.89,South,173,3.0,9.0,88,0.00,,,0.00,meteohub,2013-01-11 14:46:00,
2013-01-11 08:51:00,48.7,45.7,29.89,South,186,5.0,8.0,89,0.00,,,0.00,meteohub,2013-01-11 14:51:00,
2013-01-11 08:56:00,48.7,45.3,29.90,SSW,192,5.0,7.0,88,0.00,,,0.00,meteohub,2013-01-11 14:56:00,
2013-01-11 09:02:00,48.9,45.9,29.90,South,175,5.0,7.0,89,0.00,,,0.00,meteohub,2013-01-11 15:02:00,
2013-01-11 09:07:00,49.5,46.0,29.90,SSE,162,7.0,8.0,88,0.00,,,0.00,meteohub,2013-01-11 15:07:00,
2013-01-11 09:12:00,49.8,46.4,29.90,SSW,195,11.0,11.0,88,0.00,,,0.00,meteohub,2013-01-11 15:12:00,
2013-01-11 09:17:00,50.7,46.8,29.89,South,173,5.0,13.0,86,0.00,,,0.00,meteohub,2013-01-11 15:17:00,
2013-01-11 09:22:00,51.6,47.5,29.90,South,190,8.0,14.0,86,0.00,,,0.00,meteohub,2013-01-11 15:22:00,
2013-01-11 09:27:00,52.3,48.0,29.90,SSW,213,7.0,14.0,85,0.00,,,0.00,meteohub,2013-01-11 15:27:00,
2013-01-11 09:32:00,53.2,48.6,29.89,South,183,8.0,14.0,84,0.00,,,0.00,meteohub,2013-01-11 15:32:00,
2013-01-11 09:37:00,53.8,48.7,29.89,SSW,192,12.0,15.0,83,0.00,,,0.00,meteohub,2013-01-11 15:37:00,
2013-01-11 09:42:00,54.3,48.9,29.89,SSW,202,6.0,15.0,82,0.00,,,0.00,meteohub,2013-01-11 15:42:00,
2013-01-11 09:48:00,55.0,49.3,29.89,South,173,5.0,17.0,81,0.00,,,0.00,meteohub,2013-01-11 15:48:00,
2013-01-11 09:53:00,55.4,49.3,29.88,South,172,8.0,17.0,80,0.00,,,0.00,meteohub,2013-01-11 15:53:00,
2013-01-11 09:58:00,55.8,49.6,29.89,South,186,12.0,15.0,80,0.00,,,0.00,meteohub,2013-01-11 15:58:00,
2013-01-11 10:03:00,56.3,49.8,29.89,South,176,12.0,15.0,79,0.00,,,0.00,meteohub,2013-01-11 16:03:00,
2013-01-11 10:09:00,56.8,50.0,29.89,SSW,194,10.0,20.0,78,0.00,,,0.00,meteohub,2013-01-11 16:09:00,
2013-01-11 10:14:00,57.0,49.8,29.90,SSW,202,5.0,18.0,77,0.00,,,0.00,meteohub,2013-01-11 16:14:00,
2013-01-11 10:19:00,57.4,50.2,29.90,WSW,238,7.0,16.0,77,0.00,,,0.00,meteohub,2013-01-11 16:19:00,
2013-01-11 10:24:00,56.8,49.3,29.89,South,183,5.0,16.0,76,0.00,,,0.00,meteohub,2013-01-11 16:24:00,
2013-01-11 10:29:00,57.7,50.5,29.89,South,191,5.0,14.0,77,0.00,,,0.00,meteohub,2013-01-11 16:29:00,
2013-01-11 10:35:00,58.8,50.5,29.88,SW,219,9.0,14.0,74,0.00,,,0.00,meteohub,2013-01-11 16:35:00,
2013-01-11 10:40:00,59.5,51.3,29.89,South,176,6.0,15.0,74,0.00,,,0.00,meteohub,2013-01-11 16:40:00,
2013-01-11 10:45:00,60.1,50.7,29.88,South,184,19.0,19.0,71,0.00,,,0.00,meteohub,2013-01-11 16:45:00,
2013-01-11 10:50:00,59.9,51.3,29.88,SSW,200,12.0,19.0,73,0.00,,,0.00,meteohub,2013-01-11 16:50:00,
2013-01-11 10:56:00,60.4,51.4,29.88,South,171,8.0,21.0,72,0.00,,,0.00,meteohub,2013-01-11 16:56:00,
2013-01-11 11:01:00,61.5,52.0,29.87,SSW,194,9.0,21.0,71,0.00,,,0.00,meteohub,2013-01-11 17:01:00,
2013-01-11 11:06:00,62.2,52.3,29.87,SSE,165,9.0,16.0,70,0.00,,,0.00,meteohub,2013-01-11 17:06:00,
2013-01-11 11:11:00,62.8,52.5,29.87,South,181,8.0,16.0,69,0.00,,,0.00,meteohub,2013-01-11 17:11:00,
2013-01-11 11:17:00,63.1,51.6,29.86,South,173,9.0,16.0,66,0.00,,,0.00,meteohub,2013-01-11 17:17:00,
2013-01-11 11:22:00,63.9,52.7,29.86,SSW,202,12.0,17.0,67,0.00,,,0.00,meteohub,2013-01-11 17:22:00,
2013-01-11 11:27:00,64.2,51.8,29.86,SW,216,7.0,21.0,64,0.00,,,0.00,meteohub,2013-01-11 17:27:00,
2013-01-11 11:32:00,64.8,51.4,29.86,SW,229,6.0,21.0,62,0.00,,,0.00,meteohub,2013-01-11 17:32:00,
2013-01-11 11:37:00,65.1,51.8,29.86,SSW,198,7.0,17.0,62,0.00,,,0.00,meteohub,2013-01-11 17:37:00,
2013-01-11 11:42:00,65.1,51.3,29.85,South,182,13.0,17.0,61,0.00,,,0.00,meteohub,2013-01-11 17:42:00,
2013-01-11 11:47:00,65.3,51.4,29.84,South,188,13.0,20.0,61,0.00,,,0.00,meteohub,2013-01-11 17:47:00,
2013-01-11 11:52:00,65.8,51.6,29.83,SSW,207,15.0,20.0,60,0.00,,,0.00,meteohub,2013-01-11 17:52:00,
2013-01-11 11:57:00,66.0,51.8,29.83,South,175,10.0,20.0,60,0.00,,,0.00,meteohub,2013-01-11 17:57:00,
2013-01-11 12:02:00,66.2,52.0,29.83,South,184,8.0,20.0,60,0.00,,,0.00,meteohub,2013-01-11 18:02:00,
2013-01-11 12:07:00,65.5,52.2,29.82,South,178,7.0,21.0,62,0.00,,,0.00,meteohub,2013-01-11 18:07:00,
2013-01-11 12:12:00,65.7,53.2,29.83,SSW,213,9.0,21.0,64,0.00,,,0.00,meteohub,2013-01-11 18:12:00,
2013-01-11 12:17:00,66.6,53.1,29.82,SSW,199,14.0,23.0,62,0.00,,,0.00,meteohub,2013-01-11 18:17:00,
2013-01-11 12:23:00,66.6,52.2,29.82,South,188,13.0,23.0,60,0.00,,,0.00,meteohub,2013-01-11 18:23:00,
2013-01-11 12:28:00,66.7,52.0,29.82,SSW,211,8.0,21.0,59,0.00,,,0.00,meteohub,2013-01-11 18:28:00,
2013-01-11 12:33:00,67.6,53.2,29.82,South,182,11.0,21.0,60,0.00,,,0.00,meteohub,2013-01-11 18:33:00,
2013-01-11 12:39:00,66.7,52.9,29.81,SSW,209,9.0,21.0,61,0.00,,,0.00,meteohub,2013-01-11 18:39:00,
2013-01-11 12:44:00,66.4,52.5,29.81,SSW,211,13.0,20.0,61,0.00,,,0.00,meteohub,2013-01-11 18:44:00,
2013-01-11 12:49:00,66.6,52.7,29.80,SW,218,18.0,20.0,61,0.00,,,0.00,meteohub,2013-01-11 18:49:00,
2013-01-11 12:54:00,66.7,52.9,29.79,SSE,166,13.0,25.0,61,0.00,,,0.00,meteohub,2013-01-11 18:54:00,
2013-01-11 13:00:00,67.5,53.6,29.78,SSW,205,17.0,25.0,61,0.00,,,0.00,meteohub,2013-01-11 19:00:00,
2013-01-11 13:05:00,67.3,53.4,29.78,SW,220,9.0,25.0,61,0.00,,,0.00,meteohub,2013-01-11 19:05:00,
2013-01-11 13:10:00,67.6,53.2,29.78,SSW,212,11.0,31.0,60,0.00,,,0.00,meteohub,2013-01-11 19:10:00,
2013-01-11 13:15:00,67.3,52.9,29.78,SW,219,12.0,31.0,60,0.00,,,0.00,meteohub,2013-01-11 19:15:00,
2013-01-11 13:20:00,67.5,53.6,29.78,South,186,10.0,27.0,61,0.00,,,0.00,meteohub,2013-01-11 19:20:00,
2013-01-11 13:26:00,67.3,53.8,29.78,SW,226,10.0,29.0,62,0.00,,,0.00,meteohub,2013-01-11 19:26:00,
2013-01-11 13:31:00,66.9,53.4,29.78,SW,225,16.0,29.0,62,0.00,,,0.00,meteohub,2013-01-11 19:31:00,
2013-01-11 13:36:00,66.9,53.4,29.78,SSW,201,8.0,18.0,62,0.00,,,0.00,meteohub,2013-01-11 19:36:00,
2013-01-11 13:41:00,66.9,54.0,29.78,South,175,7.0,18.0,63,0.00,,,0.00,meteohub,2013-01-11 19:41:00,
2013-01-11 13:47:00,67.5,54.9,29.78,South,173,9.0,21.0,64,0.00,,,0.00,meteohub,2013-01-11 19:47:00,
2013-01-11 13:52:00,68.2,54.7,29.78,SW,214,7.0,21.0,62,0.00,,,0.00,meteohub,2013-01-11 19:52:00,
2013-01-11 13:57:00,69.3,54.9,29.78,SSW,212,8.0,19.0,60,0.00,,,0.00,meteohub,2013-01-11 19:57:00,
2013-01-11 14:02:00,70.0,55.0,29.78,South,188,10.0,19.0,59,0.00,,,0.00,meteohub,2013-01-11 20:02:00,
2013-01-11 14:07:00,69.3,53.8,29.77,SSW,208,15.0,20.0,58,0.00,,,0.00,meteohub,2013-01-11 20:07:00,
2013-01-11 14:12:00,68.7,52.9,29.77,SSW,208,10.0,20.0,57,0.00,,,0.00,meteohub,2013-01-11 20:12:00,
2013-01-11 14:18:00,69.1,54.1,29.77,SW,222,8.0,24.0,59,0.00,,,0.00,meteohub,2013-01-11 20:18:00,
2013-01-11 14:23:00,69.1,53.6,29.77,SSW,205,8.0,24.0,58,0.00,,,0.00,meteohub,2013-01-11 20:23:00,
2013-01-11 14:28:00,69.1,53.2,29.77,SSE,167,12.0,24.0,57,0.00,,,0.00,meteohub,2013-01-11 20:28:00,
2013-01-11 14:33:00,69.3,52.9,29.77,SSW,194,8.0,24.0,56,0.00,,,0.00,meteohub,2013-01-11 20:33:00,
2013-01-11 14:39:00,69.3,53.4,29.76,SSW,211,8.0,25.0,57,0.00,,,0.00,meteohub,2013-01-11 20:39:00,
2013-01-11 14:44:00,69.3,52.3,29.76,SSW,196,13.0,24.0,55,0.00,,,0.00,meteohub,2013-01-11 20:44:00,
2013-01-11 14:49:00,69.8,54.0,29.76,South,182,7.0,24.0,57,0.00,,,0.00,meteohub,2013-01-11 20:49:00,
2013-01-11 14:55:00,70.7,53.8,29.75,SSW,211,14.0,24.0,55,0.00,,,0.00,meteohub,2013-01-11 20:55:00,
2013-01-11 15:00:00,70.9,54.0,29.76,SSW,205,12.0,24.0,55,0.00,,,0.00,meteohub,2013-01-11 21:00:00,
2013-01-11 15:05:00,70.2,53.2,29.76,SSW,211,7.0,24.0,55,0.00,,,0.00,meteohub,2013-01-11 21:05:00,
2013-01-11 15:10:00,70.3,54.0,29.76,SSW,209,9.0,20.0,56,0.00,,,0.00,meteohub,2013-01-11 21:10:00,
2013-01-11 15:16:00,70.9,54.0,29.76,SSW,199,12.0,18.0,55,0.00,,,0.00,meteohub,2013-01-11 21:16:00,
2013-01-11 15:21:00,70.2,53.2,29.76,SSW,194,9.0,18.0,55,0.00,,,0.00,meteohub,2013-01-11 21:21:00,
2013-01-11 15:26:00,69.6,53.8,29.76,South,182,9.0,18.0,57,0.00,,,0.00,meteohub,2013-01-11 21:26:00,
2013-01-11 15:31:00,69.3,54.3,29.77,South,188,8.0,18.0,59,0.00,,,0.00,meteohub,2013-01-11 21:31:00,
2013-01-11 15:37:00,69.1,54.1,29.77,SSW,192,4.0,14.0,59,0.00,,,0.00,meteohub,2013-01-11 21:37:00,
2013-01-11 15:42:00,69.1,54.1,29.77,SSW,207,8.0,14.0,59,0.00,,,0.00,meteohub,2013-01-11 21:42:00,
2013-01-11 15:47:00,69.1,54.1,29.76,South,180,8.0,15.0,59,0.00,,,0.00,meteohub,2013-01-11 21:47:00,
2013-01-11 15:52:00,69.1,54.7,29.76,South,178,7.0,15.0,60,0.00,,,0.00,meteohub,2013-01-11 21:52:00,
2013-01-11 15:57:00,68.7,54.3,29.75,SSW,196,5.0,15.0,60,0.00,,,0.00,meteohub,2013-01-11 21:57:00,
2013-01-11 16:02:00,68.5,54.5,29.75,SSW,200,5.0,15.0,61,0.00,,,0.00,meteohub,2013-01-11 22:02:00,
2013-01-11 16:07:00,68.5,54.5,29.75,SSW,200,8.0,14.0,61,0.00,,,0.00,meteohub,2013-01-11 22:07:00,
2013-01-11 16:12:00,68.5,54.5,29.75,South,184,5.0,14.0,61,0.00,,,0.00,meteohub,2013-01-11 22:12:00,
2013-01-11 16:17:00,69.3,55.2,29.75,South,184,5.0,12.0,61,0.00,,,0.00,meteohub,2013-01-11 22:17:00,
2013-01-11 16:22:00,70.0,55.0,29.75,SSW,194,7.0,12.0,59,0.00,,,0.00,meteohub,2013-01-11 22:22:00,
2013-01-11 16:28:00,70.5,55.6,29.74,South,173,14.0,14.0,59,0.00,,,0.00,meteohub,2013-01-11 22:28:00,
2013-01-11 16:33:00,70.9,54.9,29.75,South,185,11.0,14.0,57,0.00,,,0.00,meteohub,2013-01-11 22:33:00,
2013-01-11 16:38:00,70.3,55.4,29.74,SSW,197,11.0,21.0,59,0.00,,,0.00,meteohub,2013-01-11 22:38:00,
2013-01-11 16:43:00,70.0,55.4,29.74,SSE,166,8.0,22.0,60,0.00,,,0.00,meteohub,2013-01-11 22:43:00,
2013-01-11 16:49:00,69.6,55.6,29.74,SSW,198,6.0,22.0,61,0.00,,,0.00,meteohub,2013-01-11 22:49:00,
2013-01-11 16:54:00,69.6,55.6,29.74,South,174,6.0,22.0,61,0.00,,,0.00,meteohub,2013-01-11 22:54:00,
2013-01-11 16:59:00,69.4,55.4,29.74,South,180,8.0,18.0,61,0.00,,,0.00,meteohub,2013-01-11 22:59:00,
2013-01-11 17:04:00,69.3,55.8,29.74,SSW,192,7.0,18.0,62,0.00,,,0.00,meteohub,2013-01-11 23:04:00,
2013-01-11 17:10:00,69.1,55.9,29.74,SSW,196,7.0,18.0,63,0.00,,,0.00,meteohub,2013-01-11 23:10:00,
2013-01-11 17:15:00,68.7,56.1,29.75,South,182,11.0,17.0,64,0.00,,,0.00,meteohub,2013-01-11 23:15:00,
2013-01-11 17:20:00,68.4,56.1,29.75,SSE,166,8.0,20.0,65,0.00,,,0.00,meteohub,2013-01-11 23:20:00,
2013-01-11 17:25:00,67.8,56.1,29.75,SSE,166,8.0,20.0,66,0.00,,,0.00,meteohub,2013-01-11 23:25:00,
2013-01-11 17:31:00,67.8,56.5,29.75,South,172,11.0,20.0,67,0.00,,,0.00,meteohub,2013-01-11 23:31:00,
2013-01-11 17:36:00,67.6,56.7,29.75,SSW,201,7.0,15.0,68,0.00,,,0.00,meteohub,2013-01-11 23:36:00,
2013-01-11 17:41:00,67.3,56.3,29.75,South,182,6.0,15.0,68,0.00,,,0.00,meteohub,2013-01-11 23:41:00,
2013-01-11 17:46:00,67.1,56.7,29.75,South,189,7.0,13.0,69,0.00,,,0.00,meteohub,2013-01-11 23:46:00,
2013-01-11 17:51:00,66.7,56.7,29.75,SSW,192,7.0,11.0,70,0.00,,,0.00,meteohub,2013-01-11 23:51:00,
2013-01-11 17:57:00,66.7,56.7,29.75,South,189,4.0,11.0,70,0.00,,,0.00,meteohub,2013-01-11 23:57:00,
2013-01-11 18:02:00,66.6,56.8,29.75,South,182,8.0,11.0,71,0.00,,,0.00,meteohub,2013-01-12 00:02:00,
2013-01-11 18:07:00,66.4,56.7,29.75,South,189,4.0,10.0,71,0.00,,,0.00,meteohub,2013-01-12 00:07:00,
2013-01-11 18:12:00,66.0,56.7,29.75,South,185,4.0,10.0,72,0.00,,,0.00,meteohub,2013-01-12 00:12:00,
2013-01-11 18:17:00,65.8,56.5,29.75,South,183,5.0,10.0,72,0.00,,,0.00,meteohub,2013-01-12 00:17:00,
2013-01-11 18:22:00,65.7,56.8,29.76,SSW,192,5.0,10.0,73,0.00,,,0.00,meteohub,2013-01-12 00:22:00,
2013-01-11 18:28:00,65.5,56.7,29.76,South,188,6.0,8.0,73,0.00,,,0.00,meteohub,2013-01-12 00:28:00,
2013-01-11 18:33:00,65.5,56.7,29.76,SSW,193,3.0,8.0,73,0.00,,,0.00,meteohub,2013-01-12 00:33:00,
2013-01-11 18:38:00,65.3,56.8,29.76,South,189,6.0,8.0,74,0.00,,,0.00,meteohub,2013-01-12 00:38:00,
2013-01-11 18:44:00,65.3,56.8,29.76,SSE,153,5.0,8.0,74,0.00,,,0.00,meteohub,2013-01-12 00:44:00,
2013-01-11 18:49:00,65.5,57.0,29.75,South,169,3.0,8.0,74,0.00,,,0.00,meteohub,2013-01-12 00:49:00,
2013-01-11 18:54:00,65.3,56.8,29.75,SE,146,6.0,8.0,74,0.00,,,0.00,meteohub,2013-01-12 00:54:00,
2013-01-11 18:59:00,65.1,56.7,29.75,South,178,4.0,8.0,74,0.00,,,0.00,meteohub,2013-01-12 00:59:00,
2013-01-11 19:05:00,64.8,56.3,29.75,SSE,167,4.0,8.0,74,0.00,,,0.00,meteohub,2013-01-12 01:05:00,
2013-01-11 19:10:00,64.6,56.5,29.76,South,182,4.0,8.0,75,0.00,,,0.00,meteohub,2013-01-12 01:10:00,
2013-01-11 19:15:00,64.2,56.1,29.76,South,174,6.0,8.0,75,0.00,,,0.00,meteohub,2013-01-12 01:15:00,
2013-01-11 19:20:00,64.2,56.1,29.76,South,182,4.0,7.0,75,0.00,,,0.00,meteohub,2013-01-12 01:20:00,
2013-01-11 19:26:00,64.0,56.3,29.76,SSE,166,4.0,9.0,76,0.00,,,0.00,meteohub,2013-01-12 01:26:00,
2013-01-11 19:31:00,64.0,56.3,29.76,SSE,167,4.0,9.0,76,0.00,,,0.00,meteohub,2013-01-12 01:31:00,
2013-01-11 19:36:00,64.2,56.5,29.76,South,178,4.0,8.0,76,0.00,,,0.00,meteohub,2013-01-12 01:36:00,
2013-01-11 19:42:00,64.2,56.5,29.77,South,188,3.0,8.0,76,0.00,,,0.00,meteohub,2013-01-12 01:42:00,
2013-01-11 19:47:00,64.0,56.7,29.78,SSW,193,7.0,7.0,77,0.00,,,0.00,meteohub,2013-01-12 01:47:00,
2013-01-11 19:52:00,64.2,56.8,29.78,South,174,4.0,7.0,77,0.00,,,0.00,meteohub,2013-01-12 01:52:00,
2013-01-11 19:57:00,64.0,56.7,29.78,South,175,5.0,7.0,77,0.00,,,0.00,meteohub,2013-01-12 01:57:00,
2013-01-11 20:02:00,63.9,56.5,29.77,SSE,155,4.0,7.0,77,0.00,,,0.00,meteohub,2013-01-12 02:02:00,
2013-01-11 20:07:00,63.7,56.3,29.78,South,169,4.0,7.0,77,0.00,,,0.00,meteohub,2013-01-12 02:07:00,
2013-01-11 20:12:00,63.3,56.3,29.78,South,180,2.0,7.0,78,0.00,,,0.00,meteohub,2013-01-12 02:12:00,
2013-01-11 20:17:00,63.0,55.9,29.78,SSE,165,3.0,6.0,78,0.00,,,0.00,meteohub,2013-01-12 02:17:00,
2013-01-11 20:23:00,63.0,56.3,29.78,SSW,192,4.0,6.0,79,0.00,,,0.00,meteohub,2013-01-12 02:23:00,
2013-01-11 20:28:00,63.0,56.7,29.77,SSE,165,6.0,9.0,80,0.00,,,0.00,meteohub,2013-01-12 02:28:00,
2013-01-11 20:33:00,63.0,57.0,29.78,SE,142,7.0,9.0,81,0.00,,,0.00,meteohub,2013-01-12 02:33:00,
2013-01-11 20:38:00,63.0,57.0,29.78,SSE,167,4.0,9.0,81,0.00,,,0.00,meteohub,2013-01-12 02:38:00,
2013-01-11 20:44:00,63.0,57.4,29.78,South,180,7.0,9.0,82,0.00,,,0.00,meteohub,2013-01-12 02:44:00,
2013-01-11 20:49:00,63.1,57.9,29.78,South,189,4.0,9.0,83,0.00,,,0.00,meteohub,2013-01-12 02:49:00,
2013-01-11 20:54:00,63.3,58.1,29.78,SSW,193,3.0,9.0,83,0.00,,,0.00,meteohub,2013-01-12 02:54:00,
2013-01-11 21:00:00,63.3,58.5,29.78,South,183,7.0,9.0,84,0.00,,,0.00,meteohub,2013-01-12 03:00:00,
2013-01-11 21:05:00,63.3,58.8,29.78,South,170,6.0,9.0,85,0.00,,,0.00,meteohub,2013-01-12 03:05:00,
2013-01-11 21:10:00,63.3,59.0,29.78,South,171,3.0,9.0,86,0.00,,,0.00,meteohub,2013-01-12 03:10:00,
2013-01-11 21:15:00,63.3,59.0,29.78,South,173,3.0,9.0,86,0.00,,,0.00,meteohub,2013-01-12 03:15:00,
2013-01-11 21:21:00,63.5,59.5,29.78,SE,145,2.0,9.0,87,0.00,,,0.00,meteohub,2013-01-12 03:21:00,
2013-01-11 21:26:00,63.5,59.5,29.78,South,182,4.0,9.0,87,0.00,,,0.00,meteohub,2013-01-12 03:26:00,
2013-01-11 21:31:00,63.3,59.4,29.78,South,174,5.0,9.0,87,0.00,,,0.00,meteohub,2013-01-12 03:31:00,
2013-01-11 21:37:00,63.3,59.4,29.78,South,177,7.0,8.0,87,0.00,,,0.00,meteohub,2013-01-12 03:37:00,
2013-01-11 21:42:00,63.5,59.5,29.79,SSW,197,7.0,8.0,87,0.00,,,0.00,meteohub,2013-01-12 03:42:00,
2013-01-11 21:47:00,63.7,60.1,29.79,SSW,200,6.0,10.0,88,0.00,,,0.00,meteohub,2013-01-12 03:47:00,
2013-01-11 21:52:00,63.7,60.1,29.79,SSE,164,6.0,10.0,88,0.00,,,0.00,meteohub,2013-01-12 03:52:00,
2013-01-11 21:57:00,63.9,60.6,29.79,South,174,11.0,11.0,89,0.00,,,0.00,meteohub,2013-01-12 03:57:00,
2013-01-11 22:02:00,64.0,60.8,29.79,South,188,8.0,11.0,89,0.00,,,0.00,meteohub,2013-01-12 04:02:00,
2013-01-11 22:07:00,64.2,61.0,29.79,SSW,209,8.0,14.0,89,0.00,,,0.00,meteohub,2013-01-12 04:07:00,
2013-01-11 22:12:00,64.6,61.3,29.79,South,179,6.0,14.0,89,0.00,,,0.00,meteohub,2013-01-12 04:12:00,
2013-01-11 22:17:00,64.6,61.3,29.79,South,169,7.0,13.0,89,0.00,,,0.00,meteohub,2013-01-12 04:17:00,
2013-01-11 22:23:00,64.8,61.5,29.79,South,178,10.0,14.0,89,0.00,,,0.00,meteohub,2013-01-12 04:23:00,
2013-01-11 22:28:00,64.9,61.7,29.79,South,176,5.0,14.0,89,0.00,,,0.00,meteohub,2013-01-12 04:28:00,
2013-01-11 22:33:00,64.9,61.7,29.79,South,188,6.0,14.0,89,0.00,,,0.00,meteohub,2013-01-12 04:33:00,
2013-01-11 22:39:00,65.1,61.9,29.79,SSW,194,8.0,16.0,89,0.00,,,0.00,meteohub,2013-01-12 04:39:00,
2013-01-11 22:44:00,65.1,61.9,29.79,South,173,7.0,16.0,89,0.00,,,0.00,meteohub,2013-01-12 04:44:00,
2013-01-11 22:49:00,65.3,62.2,29.79,South,188,9.0,16.0,90,0.00,,,0.00,meteohub,2013-01-12 04:49:00,
2013-01-11 22:54:00,65.5,62.2,29.79,South,190,11.0,16.0,89,0.00,,,0.00,meteohub,2013-01-12 04:54:00,
2013-01-11 22:59:00,65.5,62.2,29.80,SSE,157,7.0,16.0,89,0.00,,,0.00,meteohub,2013-01-12 04:59:00,
2013-01-11 23:02:00,65.5,62.2,29.80,South,185,10.0,16.0,89,0.00,,,0.00,meteohub,2013-01-12 05:02:00,
2013-01-11 23:03:00,65.5,62.2,29.80,SSW,199,7.0,16.0,89,0.00,,,0.00,meteohub,2013-01-12 05:03:00,
2013-01-11 23:08:00,65.5,62.4,29.80,South,175,7.0,14.0,90,0.00,,,0.00,meteohub,2013-01-12 05:08:00,
2013-01-11 23:14:00,65.3,62.2,29.80,South,184,10.0,14.0,90,0.00,,,0.00,meteohub,2013-01-12 05:14:00,
2013-01-11 23:19:00,65.3,62.2,29.80,South,176,5.0,14.0,90,0.00,,,0.00,meteohub,2013-01-12 05:19:00,
2013-01-11 23:24:00,65.3,62.2,29.80,SSW,196,8.0,14.0,90,0.00,,,0.00,meteohub,2013-01-12 05:24:00,
2013-01-11 23:29:00,65.3,62.2,29.80,SSW,192,5.0,14.0,90,0.00,,,0.00,meteohub,2013-01-12 05:29:00,
2013-01-11 23:35:00,65.3,62.2,29.80,South,172,10.0,14.0,90,0.00,,,0.00,meteohub,2013-01-12 05:35:00,
2013-01-11 23:40:00,65.1,62.1,29.80,SW,229,12.0,14.0,90,0.00,,,0.00,meteohub,2013-01-12 05:40:00,
2013-01-11 23:45:00,65.1,62.1,29.80,SSW,194,7.0,15.0,90,0.00,,,0.00,meteohub,2013-01-12 05:45:00,
2013-01-11 23:50:00,65.1,62.4,29.80,South,186,6.0,15.0,91,0.00,,,0.00,meteohub,2013-01-12 05:50:00,
2013-01-11 23:56:00,64.9,62.2,29.80,SSW,200,9.0,13.0,91,0.00,,,0.00,meteohub,2013-01-12 05:56:00,